sat.trackr.live / text

‹ back to catalog

STARLINK-32222

NORAD 60435 · 2024-144L

PAYLOAD ACTIVE UNKNOWN

§ Identity

Operator
Country
US
Launch date
2024-08-12
Launch site
AFETR
Launch vehicle
Mass (kg)
RCS (m²)

Purposes: comms

External: N2YO · Heavens-Above · Gunter

§ Orbital elements

Epoch: 2026-05-25T04:25:56.642304Z

Period
93.85 min
Inclination
53.1606°
Eccentricity
0.0000693
Mean motion
15.34396474 rev/d
Perigee alt
462.2 km
Apogee alt
463.2 km
Semi-major
6,840.9 km
B*
-1.9687e-6
RAAN
220.9164°
Arg perigee
50.2418°
Mean anomaly
309.8646°
Rev number
10,103

§ Raw data

STARLINK-322221 60435U 24144L   26145.18468336 -.00000442  00000+0 -19687-5 0  99972 60435  53.1606 220.9164 0000693  50.2418 309.8646 15.34396474101030

JSON: /api/v1/satellites/60435 · /tle

For live sub-satellite position, see the globe view (requires WebGL).

§ Visibility from observer

Set your observer location to see the next 7 days of passes ≥ 10°. The values pass through the URL so the page stays shareable.

No JS? Fill the form by hand. The geolocation button needs JavaScript.